When you browse on this site, cookies collect data to enhance your experience and personalize the content and advertising you see.
Visit our Privacy Policy to learn more. By continuing to use the site, you agree to this use of cookies and data.
  • In Hungary
  • List of Countries
  • For 7 days
  • Water Temperature
  • Weather Map
  • News
  • Weather Widgets
  • user-avatar
    Login

    Hourly Weather Oreshki

    Today, 18 August, Sunday

    Time Temperature Precipitation Wind Pressure Humidity
    00:00 +14°C° 1 mm 3 mps 734 mmHg 98%
    01:00 +14°C° 1 mm 3 mps 734 mmHg 98%
    02:00 +14°C° 0 mm 3 mps 734 mmHg 98%
    03:00 +13°C° 2.9 mm 3 mps 733 mmHg 98%
    04:00 +13°C° 2.9 mm 3 mps 733 mmHg 98%
    05:00 +13°C° 2.9 mm 3 mps 733 mmHg 98%
    06:00 +13°C° 2.1 mm 3 mps 733 mmHg 98%
    07:00 +13°C° 2.1 mm 3 mps 733 mmHg 98%
    08:00 +13°C° 2.1 mm 3 mps 733 mmHg 98%
    09:00 +14°C° 0.8 mm 2 mps 733 mmHg 98%
    10:00 +15°C° 0.8 mm 2 mps 733 mmHg 98%
    11:00 +15°C° 0.8 mm 2 mps 733 mmHg 98%
    12:00 +15°C° 0.3 mm 2 mps 734 mmHg 97%
    13:00 +15°C° 0.3 mm 2 mps 734 mmHg 97%
    14:00 +14°C° 0.3 mm 3 mps 734 mmHg 97%
    15:00 +14°C° 0.1 mm 3 mps 734 mmHg 97%
    16:00 +14°C° 0.1 mm 3 mps 735 mmHg 97%
    17:00 +14°C° 0.1 mm 3 mps 735 mmHg 97%
    18:00 +14°C° 0.2 mm 3 mps 735 mmHg 97%
    19:00 +14°C° 0.2 mm 3 mps 736 mmHg 98%
    20:00 +14°C° 0.2 mm 3 mps 736 mmHg 98%
    21:00 +14°C° 0.1 mm 3 mps 736 mmHg 98%
    22:00 +13°C° 0.1 mm 3 mps 736 mmHg 98%
    23:00 +14°C° 0.1 mm 2 mps 736 mmHg 98%

    Tomorrow, 19 August, Monday

    Time Temperature Precipitation Wind Pressure Humidity
    00:00 +13°C° 0 mm 3 mps 737 mmHg 98%
    01:00 +13°C° 0 mm 3 mps 737 mmHg 98%
    02:00 +13°C° 0 mm 3 mps 737 mmHg 98%
    03:00 +13°C° 0 mm 3 mps 737 mmHg 98%
    04:00 +14°C° 0 mm 2 mps 738 mmHg 97%
    05:00 +14°C° 0 mm 2 mps 738 mmHg 97%
    06:00 +15°C° 0 mm 2 mps 738 mmHg 95%
    07:00 +16°C° 0 mm 2 mps 739 mmHg 93%
    08:00 +17°C° 0 mm 2 mps 739 mmHg 91%
    09:00 +18°C° 0 mm 2 mps 739 mmHg 82%
    10:00 +20°C° 0 mm 2 mps 740 mmHg 74%
    11:00 +22°C° 0 mm 3 mps 740 mmHg 66%
    12:00 +22°C° 0 mm 3 mps 740 mmHg 64%
    13:00 +24°C° 0 mm 3 mps 740 mmHg 62%
    14:00 +25°C° 0 mm 3 mps 740 mmHg 60%
    15:00 +24°C° 0 mm 3 mps 740 mmHg 65%
    16:00 +24°C° 0 mm 2 mps 741 mmHg 69%
    17:00 +24°C° 0 mm 2 mps 741 mmHg 74%
    18:00 +21°C° 0 mm 2 mps 741 mmHg 80%
    19:00 +20°C° 0 mm 2 mps 741 mmHg 86%
    20:00 +18°C° 0 mm 2 mps 741 mmHg 93%
    21:00 +18°C° 0 mm 2 mps 741 mmHg 93%
    22:00 +17°C° 0 mm 2 mps 741 mmHg 94%
    23:00 +17°C° 0 mm 2 mps 741 mmHg 94%

    Day after tomorrow, 20 August, Tuesday

    Time Temperature Precipitation Wind Pressure Humidity
    00:00 +17°C° 0 mm 2 mps 741 mmHg 94%
    01:00 +17°C° 0 mm 2 mps 741 mmHg 93%
    02:00 +16°C° 0 mm 3 mps 742 mmHg 93%
    03:00 +16°C° 0 mm 2 mps 742 mmHg 94%
    04:00 +16°C° 0 mm 2 mps 742 mmHg 95%
    05:00 +16°C° 0 mm 2 mps 742 mmHg 96%
    06:00 +17°C° 0 mm 2 mps 742 mmHg 93%
    07:00 +19°C° 0 mm 2 mps 742 mmHg 89%
    08:00 +20°C° 0 mm 2 mps 743 mmHg 85%
    09:00 +23°C° 0.3 mm 2 mps 743 mmHg 82%
    10:00 +24°C° 0.3 mm 3 mps 743 mmHg 80%
    11:00 +25°C° 0.3 mm 3 mps 743 mmHg 77%
    12:00 +26°C° 0.2 mm 2 mps 743 mmHg 75%
    13:00 +26°C° 0.2 mm 2 mps 744 mmHg 73%
    14:00 +27°C° 0.2 mm 2 mps 744 mmHg 71%
    15:00 +26°C° 0.3 mm 2 mps 744 mmHg 74%
    16:00 +26°C° 0.3 mm 1 mps 744 mmHg 78%
    17:00 +25°C° 0.3 mm 1 mps 744 mmHg 81%
    18:00 +24°C° 0.7 mm 1 mps 744 mmHg 85%
    19:00 +22°C° 0.7 mm 1 mps 744 mmHg 89%
    20:00 +21°C° 0.7 mm 1 mps 744 mmHg 93%
    21:00 +18°C° 0.4 mm 0 mps 744 mmHg 94%
    22:00 +18°C° 0.4 mm 0 mps 744 mmHg 95%
    23:00 +18°C° 0.4 mm 0 mps 744 mmHg 96%

    21 August, Wednesday

    Time Temperature Precipitation Wind Pressure Humidity
    00:00 +17°C° 0.3 mm 0 mps 744 mmHg 96%
    01:00 +17°C° 0.3 mm 0 mps 745 mmHg 96%
    02:00 +17°C° 0.3 mm 0 mps 745 mmHg 97%
    03:00 +19°C° 0.1 mm 1 mps 745 mmHg 97%
    04:00 +19°C° 0.1 mm 1 mps 745 mmHg 98%
    05:00 +19°C° 0.1 mm 1 mps 745 mmHg 98%
    06:00 +20°C° 0 mm 1 mps 745 mmHg 96%
    07:00 +21°C° 0 mm 1 mps 745 mmHg 94%
    08:00 +22°C° 0 mm 1 mps 745 mmHg 92%
    09:00 +23°C° 0 mm 1 mps 745 mmHg 89%
    10:00 +23°C° 0 mm 1 mps 745 mmHg 87%
    11:00 +24°C° 0 mm 1 mps 745 mmHg 84%
    12:00 +25°C° 0.1 mm 1 mps 745 mmHg 81%
    13:00 +26°C° 0.1 mm 1 mps 744 mmHg 77%
    14:00 +26°C° 0.1 mm 1 mps 744 mmHg 74%
    15:00 +26°C° 1.1 mm 1 mps 744 mmHg 79%
    16:00 +25°C° 1.1 mm 1 mps 743 mmHg 83%
    17:00 +25°C° 1.1 mm 1 mps 743 mmHg 88%
    18:00 +24°C° 0.4 mm 1 mps 743 mmHg 89%
    19:00 +22°C° 0.4 mm 1 mps 742 mmHg 90%
    20:00 +20°C° 0.4 mm 2 mps 742 mmHg 92%
    21:00 +20°C° 0.2 mm 2 mps 742 mmHg 93%
    22:00 +20°C° 0.2 mm 2 mps 741 mmHg 94%
    23:00 +19°C° 0.2 mm 2 mps 741 mmHg 95%

    22 August, Thursday

    Time Temperature Precipitation Wind Pressure Humidity
    00:00 +19°C° 0 mm 3 mps 741 mmHg 95%
    01:00 +19°C° 0 mm 3 mps 741 mmHg 94%
    02:00 +19°C° 0 mm 3 mps 740 mmHg 94%
    03:00 +18°C° 0.2 mm 3 mps 740 mmHg 95%
    04:00 +18°C° 0.2 mm 2 mps 740 mmHg 95%
    05:00 +18°C° 0.2 mm 2 mps 740 mmHg 96%
    06:00 +19°C° 0.5 mm 2 mps 740 mmHg 95%
    07:00 +19°C° 0.5 mm 2 mps 740 mmHg 94%
    08:00 +20°C° 0.5 mm 2 mps 741 mmHg 93%
    09:00 +19°C° 0.2 mm 3 mps 741 mmHg 92%
    10:00 +18°C° 0.2 mm 4 mps 741 mmHg 91%
    11:00 +18°C° 0.2 mm 4 mps 742 mmHg 90%
    12:00 +18°C° 0.1 mm 4 mps 742 mmHg 89%
    13:00 +17°C° 0.1 mm 4 mps 742 mmHg 88%
    14:00 +17°C° 0.1 mm 3 mps 742 mmHg 88%
    15:00 +18°C° 0 mm 3 mps 742 mmHg 86%
    16:00 +18°C° 0 mm 3 mps 742 mmHg 83%
    17:00 +19°C° 0 mm 2 mps 742 mmHg 81%
    18:00 +18°C° 0 mm 2 mps 743 mmHg 85%
    19:00 +17°C° 0 mm 2 mps 743 mmHg 88%
    20:00 +15°C° 0 mm 2 mps 743 mmHg 92%
    21:00 +15°C° 0 mm 2 mps 744 mmHg 93%
    22:00 +14°C° 0 mm 2 mps 744 mmHg 94%
    23:00 +13°C° 0 mm 2 mps 744 mmHg 94%

    23 August, Friday

    Time Temperature Precipitation Wind Pressure Humidity
    00:00 +13°C° 0 mm 2 mps 744 mmHg 94%
    01:00 +12°C° 0 mm 2 mps 744 mmHg 95%
    02:00 +12°C° 0 mm 2 mps 745 mmHg 95%
    03:00 +10°C° 0 mm 2 mps 745 mmHg 95%
    04:00 +10°C° 0 mm 2 mps 745 mmHg 95%
    05:00 +10°C° 0 mm 2 mps 745 mmHg 95%
    06:00 +12°C° 0 mm 2 mps 745 mmHg 89%
    07:00 +14°C° 0 mm 1 mps 745 mmHg 82%
    08:00 +16°C° 0 mm 1 mps 746 mmHg 76%
    09:00 +18°C° 0 mm 2 mps 746 mmHg 70%
    10:00 +19°C° 0 mm 2 mps 746 mmHg 63%
    11:00 +20°C° 0 mm 2 mps 746 mmHg 57%
    12:00 +21°C° 0 mm 2 mps 745 mmHg 55%
    13:00 +21°C° 0 mm 2 mps 745 mmHg 54%
    14:00 +23°C° 0 mm 2 mps 745 mmHg 53%
    15:00 +22°C° 0 mm 1 mps 745 mmHg 58%
    16:00 +22°C° 0 mm 1 mps 745 mmHg 63%
    17:00 +21°C° 0 mm 1 mps 745 mmHg 68%
    18:00 +19°C° 0 mm 1 mps 744 mmHg 73%
    19:00 +16°C° 0 mm 1 mps 744 mmHg 78%
    20:00 +13°C° 0 mm 0 mps 744 mmHg 83%
    21:00 +13°C° 0 mm 0 mps 744 mmHg 82%
    22:00 +13°C° 0 mm 0 mps 744 mmHg 82%
    23:00 +13°C° 0 mm 0 mps 744 mmHg 82%
    Show more